This is the latest recevied weather packets stored in our database for station/object KI7MOQ. If no packets are shown the sender has not sent any weather packets the latest 10 day(s).
| Time | Temp. | Humidity | Pressure | Rain* | Wind** | Luminosity | Snow |
|---|---|---|---|---|---|---|---|
| 1777599939 | 26.11° C | 28% | 1016.4 hPa | 0 mm | - | 14 W/m² | - |
| 1777599636 | 26.11° C | 27% | 1016.4 hPa | 0 mm | - | 14 W/m² | - |
| 1777599332 | 26.11° C | 29% | 1016.2 hPa | 0 mm | - | 14 W/m² | - |
| 1777599029 | 26.11° C | 28% | 1016.2 hPa | 0 mm | - | 15 W/m² | - |
| 1777598726 | 26.67° C | 27% | 1016.4 hPa | 0 mm | - | 15 W/m² | - |
| 1777598421 | 26.67° C | 26% | 1016.4 hPa | 0 mm | - | 16 W/m² | - |
| 1777598121 | 26.67° C | 27% | 1016.5 hPa | 0 mm | - | 16 W/m² | - |
| 1777597815 | 26.67° C | 27% | 1016.4 hPa | 0 mm | - | 16 W/m² | - |
| 1777597509 | 26.67° C | 27% | 1016.5 hPa | 0 mm | - | 17 W/m² | - |
| 1777597206 | 26.67° C | 27% | 1016.5 hPa | 0 mm | - | 17 W/m² | - |
| 1777596901 | 26.67° C | 28% | 1016.6 hPa | 0 mm | - | 17 W/m² | - |
| 1777596598 | 26.67° C | 27% | 1016.5 hPa | 0 mm | - | 17 W/m² | - |
| 1777596294 | 26.67° C | 27% | 1016.6 hPa | 0 mm | - | 18 W/m² | - |
| 1777595992 | 26.67° C | 27% | 1016.6 hPa | 0 mm | - | 18 W/m² | - |
| 1777595681 | 26.67° C | 27% | 1016.6 hPa | 0 mm | - | 19 W/m² | - |
| 1777595377 | 26.67° C | 26% | 1016.7 hPa | 0 mm | - | 19 W/m² | - |
| 1777595074 | 26.67° C | 26% | 1016.6 hPa | 0 mm | - | 20 W/m² | - |
| 1777594770 | 27.22° C | 27% | 1016.8 hPa | 0 mm | - | 23 W/m² | - |
| 1777594467 | 27.22° C | 27% | 1017 hPa | 0 mm | - | 21 W/m² | - |
| 1777594162 | 26.67° C | 27% | 1016.8 hPa | 0 mm | - | 22 W/m² | - |
| 1777593859 | 26.67° C | 27% | 1016.8 hPa | 0 mm | - | 27 W/m² | - |
| 1777593554 | 27.22° C | 27% | 1017 hPa | 0 mm | - | 25 W/m² | - |
| 1777593249 | 27.22° C | 27% | 1017 hPa | 0 mm | - | 28 W/m² | - |
| 1777592948 | 27.22° C | 27% | 1017 hPa | 0 mm | - | 58 W/m² | - |
| 1777592643 | 27.22° C | 26% | 1017 hPa | 0 mm | - | 220 W/m² | - |
* Rain latest hour (hover to see other rain measurements)
** Current wind speed in m/s (hover to see current wind gust speed)